Time,TemperatureF,DewpointF,PressureIn,WindDirection,WindDirectionDegrees,WindSpeedMPH,WindSpeedGustMPH,Humidity,HourlyPrecipIn,Conditions,Clouds,dailyrainin,SoftwareType,DateUTC
2013-06-02 00:30:00,71.1,55.9,29.94,SSE,155,0.0,3.0,59,0.00,,,0.00,meteohub,2013-06-02 04:30:00,
2013-06-02 00:35:00,70.9,55.8,29.94,SSE,155,0.0,3.0,59,0.00,,,0.00,meteohub,2013-06-02 04:35:00,
2013-06-02 00:40:00,70.7,55.6,29.91,SSE,155,0.0,0.0,59,0.00,,,0.00,meteohub,2013-06-02 04:40:00,
2013-06-02 00:45:00,70.7,55.6,29.91,SSE,155,0.0,0.0,59,0.00,,,0.00,meteohub,2013-06-02 04:45:00,
2013-06-02 00:50:00,70.5,55.6,29.91,SSE,155,0.0,0.0,59,0.00,,,0.00,meteohub,2013-06-02 04:50:00,
2013-06-02 00:55:00,70.3,55.8,29.91,East,89,0.0,0.0,60,0.00,,,0.00,meteohub,2013-06-02 04:55:00,
2013-06-02 01:00:00,70.2,55.6,29.91,WNW,303,0.0,0.0,60,0.00,,,0.00,meteohub,2013-06-02 05:00:00,
2013-06-02 01:07:00,70.2,56.1,29.91,ENE,73,0.0,0.0,61,0.00,,,0.00,meteohub,2013-06-02 05:07:00,
2013-06-02 01:12:00,70.2,56.1,29.91,ENE,73,0.0,0.0,61,0.00,,,0.00,meteohub,2013-06-02 05:12:00,
2013-06-02 01:17:00,70.0,56.3,29.91,ENE,59,0.0,0.0,62,0.00,,,0.00,meteohub,2013-06-02 05:17:00,
2013-06-02 01:22:00,70.2,57.0,29.91,NNW,340,2.0,3.0,63,-99.99,,,0.00,meteohub,2013-06-02 05:22:00,
2013-06-02 01:27:00,70.2,56.5,29.91,NNW,327,0.0,4.0,62,-99.99,,,0.00,meteohub,2013-06-02 05:27:00,
2013-06-02 01:32:00,70.0,56.3,29.91,NW,308,0.0,4.0,62,-99.99,,,0.00,meteohub,2013-06-02 05:32:00,
2013-06-02 01:37:00,70.2,57.0,29.91,SE,139,0.0,4.0,63,-99.99,,,0.00,meteohub,2013-06-02 05:37:00,
2013-06-02 01:42:00,70.0,56.8,29.91,NE,34,0.0,4.0,63,-99.99,,,0.00,meteohub,2013-06-02 05:42:00,
2013-06-02 01:47:00,70.0,56.8,29.91,North,357,2.0,4.0,63,-99.99,,,0.00,meteohub,2013-06-02 05:47:00,
2013-06-02 01:52:00,69.8,56.7,29.91,North,357,0.0,4.0,63,-99.99,,,0.00,meteohub,2013-06-02 05:52:00,
2013-06-02 01:57:00,69.8,56.1,29.91,North,357,0.0,4.0,62,-99.99,,,0.00,meteohub,2013-06-02 05:57:00,
2013-06-02 02:02:00,69.8,56.7,29.91,North,357,0.0,4.0,63,-99.99,,,0.00,meteohub,2013-06-02 06:02:00,
2013-06-02 02:07:00,69.6,56.5,29.91,North,357,0.0,0.0,63,-99.99,,,0.00,meteohub,2013-06-02 06:07:00,
2013-06-02 02:12:00,69.6,56.5,29.91,North,357,0.0,0.0,63,-99.99,,,0.00,meteohub,2013-06-02 06:12:00,
2013-06-02 02:17:00,69.4,56.7,29.91,East,83,0.0,0.0,64,-99.99,,,0.00,meteohub,2013-06-02 06:17:00,
2013-06-02 02:22:00,69.4,56.7,29.91,NNW,329,0.0,3.0,64,-99.99,,,0.00,meteohub,2013-06-02 06:22:00,
2013-06-02 02:27:00,69.3,56.5,29.91,NW,313,0.0,3.0,64,-99.99,,,0.00,meteohub,2013-06-02 06:27:00,
2013-06-02 02:32:00,69.3,56.5,29.91,NW,305,0.0,3.0,64,-99.99,,,0.00,meteohub,2013-06-02 06:32:00,
2013-06-02 02:37:00,69.4,56.7,29.91,NW,314,0.0,3.0,64,-99.99,,,0.00,meteohub,2013-06-02 06:37:00,
2013-06-02 02:42:00,69.3,56.5,29.91,West,269,0.0,3.0,64,-99.99,,,0.00,meteohub,2013-06-02 06:42:00,
2013-06-02 02:47:00,69.1,56.8,29.91,WNW,298,3.0,0.0,65,-99.99,,,0.00,meteohub,2013-06-02 06:47:00,
2013-06-02 02:52:00,69.1,56.8,29.91,NW,319,0.0,4.0,65,0.00,,,0.00,meteohub,2013-06-02 06:52:00,
2013-06-02 02:57:00,68.9,56.7,29.91,NW,323,5.0,5.0,65,0.00,,,0.00,meteohub,2013-06-02 06:57:00,
2013-06-02 03:02:00,69.1,56.8,29.91,NNW,341,4.0,5.0,65,0.00,,,0.00,meteohub,2013-06-02 07:02:00,
2013-06-02 03:07:00,69.1,57.2,29.91,NNW,340,3.0,5.0,66,0.00,,,0.00,meteohub,2013-06-02 07:07:00,
2013-06-02 03:12:00,69.1,57.2,29.91,West,278,4.0,5.0,66,0.00,,,0.00,meteohub,2013-06-02 07:12:00,
2013-06-02 03:17:00,68.9,57.0,29.91,NNW,342,3.0,5.0,66,0.00,,,0.00,meteohub,2013-06-02 07:17:00,
2013-06-02 03:22:00,68.9,57.0,29.91,North,353,0.0,6.0,66,0.00,,,0.00,meteohub,2013-06-02 07:22:00,
2013-06-02 03:27:00,69.1,57.7,29.91,NW,307,0.0,6.0,67,0.00,,,0.00,meteohub,2013-06-02 07:27:00,
2013-06-02 03:32:00,68.9,57.0,29.91,NNW,335,3.0,6.0,66,0.00,,,0.00,meteohub,2013-06-02 07:32:00,
2013-06-02 03:37:00,68.9,57.0,29.91,WNW,289,3.0,5.0,66,0.00,,,0.00,meteohub,2013-06-02 07:37:00,
2013-06-02 03:42:00,68.7,56.8,29.91,NNW,336,3.0,6.0,66,0.00,,,0.00,meteohub,2013-06-02 07:42:00,
2013-06-02 03:47:00,68.5,56.7,29.91,NW,314,3.0,6.0,66,0.00,,,0.00,meteohub,2013-06-02 07:47:00,
2013-06-02 03:52:00,68.7,57.4,29.91,NW,319,3.0,6.0,67,0.00,,,0.00,meteohub,2013-06-02 07:52:00,
2013-06-02 03:57:00,68.5,57.2,29.91,NNW,342,0.0,6.0,67,0.00,,,0.00,meteohub,2013-06-02 07:57:00,
2013-06-02 04:02:00,68.5,57.2,29.91,NW,306,4.0,6.0,67,0.00,,,0.00,meteohub,2013-06-02 08:02:00,
2013-06-02 04:07:00,68.5,57.2,29.91,NNW,341,5.0,6.0,67,0.00,,,0.00,meteohub,2013-06-02 08:07:00,
2013-06-02 04:12:00,68.4,57.0,29.91,WNW,300,4.0,6.0,67,0.00,,,0.00,meteohub,2013-06-02 08:12:00,
2013-06-02 04:17:00,68.5,57.2,29.91,WNW,299,3.0,6.0,67,0.00,,,0.00,meteohub,2013-06-02 08:17:00,
2013-06-02 04:22:00,68.4,57.0,29.91,NW,321,4.0,6.0,67,0.00,,,0.00,meteohub,2013-06-02 08:22:00,
2013-06-02 04:27:00,68.2,56.8,29.91,NW,318,4.0,6.0,67,0.00,,,0.00,meteohub,2013-06-02 08:27:00,
2013-06-02 04:32:00,68.2,56.8,29.91,NW,318,4.0,4.0,67,0.00,,,0.00,meteohub,2013-06-02 08:32:00,
2013-06-02 04:37:00,68.0,56.7,29.91,NW,311,5.0,6.0,67,0.00,,,0.00,meteohub,2013-06-02 08:37:00,
2013-06-02 04:42:00,68.0,57.0,29.91,NNW,334,4.0,6.0,68,0.00,,,0.00,meteohub,2013-06-02 08:42:00,
2013-06-02 04:47:00,68.0,57.0,29.91,WNW,285,3.0,6.0,68,0.00,,,0.00,meteohub,2013-06-02 08:47:00,
2013-06-02 04:52:00,68.0,57.0,29.91,NW,317,3.0,6.0,68,0.00,,,0.00,meteohub,2013-06-02 08:52:00,
2013-06-02 04:57:00,67.8,56.8,29.91,West,269,0.0,6.0,68,0.00,,,0.00,meteohub,2013-06-02 08:57:00,
2013-06-02 05:02:00,67.8,56.8,29.91,NW,315,4.0,6.0,68,0.00,,,0.00,meteohub,2013-06-02 09:02:00,
2013-06-02 05:07:00,68.2,57.6,29.91,NW,304,4.0,6.0,69,0.00,,,0.00,meteohub,2013-06-02 09:07:00,
2013-06-02 05:12:00,68.0,57.4,29.91,NNW,328,4.0,5.0,69,0.00,,,0.00,meteohub,2013-06-02 09:12:00,
2013-06-02 05:17:00,68.0,57.4,29.91,North,0,4.0,5.0,69,0.00,,,0.00,meteohub,2013-06-02 09:17:00,
2013-06-02 05:22:00,68.0,57.4,29.91,NW,323,5.0,6.0,69,0.00,,,0.00,meteohub,2013-06-02 09:22:00,
2013-06-02 05:27:00,68.0,57.4,29.91,WNW,293,6.0,6.0,69,0.00,,,0.00,meteohub,2013-06-02 09:27:00,
2013-06-02 05:32:00,67.8,57.2,29.91,NNW,332,4.0,8.0,69,0.00,,,0.00,meteohub,2013-06-02 09:32:00,
2013-06-02 05:37:00,67.8,57.2,29.91,NW,313,4.0,8.0,69,0.00,,,0.00,meteohub,2013-06-02 09:37:00,
2013-06-02 05:42:00,67.8,57.2,29.88,NNW,331,3.0,8.0,69,0.00,,,0.00,meteohub,2013-06-02 09:42:00,
2013-06-02 05:47:00,68.2,57.6,29.88,West,279,3.0,6.0,69,0.00,,,0.00,meteohub,2013-06-02 09:47:00,
2013-06-02 05:52:00,68.0,57.4,29.88,WNW,299,4.0,5.0,69,0.00,,,0.00,meteohub,2013-06-02 09:52:00,
2013-06-02 05:57:00,68.4,57.7,29.88,NW,325,4.0,5.0,69,0.00,,,0.00,meteohub,2013-06-02 09:57:00,
2013-06-02 06:02:00,68.5,57.9,29.88,NW,306,0.0,5.0,69,0.00,,,0.00,meteohub,2013-06-02 10:02:00,
2013-06-02 06:07:00,68.9,57.9,29.91,West,280,0.0,5.0,68,0.00,,,0.00,meteohub,2013-06-02 10:07:00,
2013-06-02 06:12:00,69.1,58.1,29.91,NW,326,3.0,5.0,68,0.00,,,0.00,meteohub,2013-06-02 10:12:00,
2013-06-02 06:17:00,69.4,58.5,29.91,NNW,335,0.0,5.0,68,0.00,,,0.00,meteohub,2013-06-02 10:17:00,
2013-06-02 06:22:00,69.6,58.1,29.91,North,353,0.0,5.0,67,0.00,,,0.00,meteohub,2013-06-02 10:22:00,
2013-06-02 06:27:00,69.8,58.3,29.91,North,353,0.0,4.0,67,0.00,,,0.00,meteohub,2013-06-02 10:27:00,
2013-06-02 06:32:00,70.0,58.1,29.91,North,353,0.0,0.0,66,0.00,,,0.00,meteohub,2013-06-02 10:32:00,
2013-06-02 06:37:00,70.3,58.5,29.91,North,353,0.0,0.0,66,0.00,,,0.00,meteohub,2013-06-02 10:37:00,
2013-06-02 06:42:00,71.1,58.6,29.91,ENE,75,0.0,0.0,65,0.00,,,0.00,meteohub,2013-06-02 10:42:00,
2013-06-02 06:47:00,71.4,58.6,29.91,ENE,69,2.0,0.0,64,0.00,,,0.00,meteohub,2013-06-02 10:47:00,
2013-06-02 06:52:00,71.8,58.5,29.88,East,94,0.0,3.0,63,0.00,,,0.00,meteohub,2013-06-02 10:52:00,
2013-06-02 06:57:00,72.7,58.5,29.88,East,94,0.0,3.0,61,0.00,,,0.00,meteohub,2013-06-02 10:57:00,
2013-06-02 07:02:00,73.0,58.8,29.88,NNE,12,4.0,4.0,61,0.00,,,0.00,meteohub,2013-06-02 11:02:00,
2013-06-02 07:07:00,73.2,58.1,29.88,NNW,334,0.0,4.0,59,0.00,,,0.00,meteohub,2013-06-02 11:07:00,
2013-06-02 07:12:00,73.8,58.5,29.88,NE,37,0.0,4.0,59,0.00,,,0.00,meteohub,2013-06-02 11:12:00,
2013-06-02 07:17:00,73.8,57.6,29.88,WSW,249,0.0,4.0,57,0.00,,,0.00,meteohub,2013-06-02 11:17:00,
2013-06-02 07:22:00,74.7,58.5,29.88,WNW,297,3.0,4.0,57,0.00,,,0.00,meteohub,2013-06-02 11:22:00,
2013-06-02 07:28:00,74.7,56.8,29.88,NNW,334,3.0,5.0,54,0.00,,,0.00,meteohub,2013-06-02 11:28:00,
2013-06-02 07:33:00,75.4,57.0,29.88,WNW,296,6.0,8.0,53,0.00,,,0.00,meteohub,2013-06-02 11:33:00,
2013-06-02 07:38:00,75.7,57.4,29.88,NW,316,6.0,8.0,53,0.00,,,0.00,meteohub,2013-06-02 11:38:00,
2013-06-02 07:43:00,76.1,56.7,29.88,NW,322,6.0,8.0,51,0.00,,,0.00,meteohub,2013-06-02 11:43:00,
2013-06-02 07:48:00,76.6,56.7,29.88,NE,34,3.0,7.0,50,0.00,,,0.00,meteohub,2013-06-02 11:48:00,
2013-06-02 07:53:00,76.8,56.8,29.88,NE,38,0.0,7.0,50,0.00,,,0.00,meteohub,2013-06-02 11:53:00,
2013-06-02 07:58:00,77.2,56.5,29.88,WNW,301,4.0,7.0,49,0.00,,,0.00,meteohub,2013-06-02 11:58:00,
2013-06-02 08:03:00,77.7,56.5,29.88,WNW,289,3.0,6.0,48,0.00,,,0.00,meteohub,2013-06-02 12:03:00,
2013-06-02 08:08:00,77.7,55.9,29.88,WNW,302,3.0,6.0,47,0.00,,,0.00,meteohub,2013-06-02 12:08:00,
2013-06-02 08:13:00,78.1,56.3,29.88,West,266,0.0,6.0,47,0.00,,,0.00,meteohub,2013-06-02 12:13:00,
2013-06-02 08:18:00,78.8,56.3,29.88,SW,222,0.0,6.0,46,0.00,,,0.00,meteohub,2013-06-02 12:18:00,
2013-06-02 08:23:00,78.6,56.1,29.88,NE,35,2.0,6.0,46,0.00,,,0.00,meteohub,2013-06-02 12:23:00,
2013-06-02 08:29:00,77.4,55.6,29.88,ENE,76,0.0,4.0,47,0.00,,,0.00,meteohub,2013-06-02 12:29:00,
2013-06-02 08:34:00,77.7,55.9,29.88,ENE,65,4.0,4.0,47,0.00,,,0.00,meteohub,2013-06-02 12:34:00,
2013-06-02 08:39:00,76.8,55.0,29.88,ENE,73,0.0,4.0,47,0.00,,,0.00,meteohub,2013-06-02 12:39:00,
2013-06-02 08:44:00,76.5,54.7,29.88,WSW,237,3.0,4.0,47,0.00,,,0.00,meteohub,2013-06-02 12:44:00,
2013-06-02 08:49:00,77.5,56.8,29.88,SSE,148,0.0,4.0,49,0.00,,,0.00,meteohub,2013-06-02 12:49:00,
2013-06-02 08:54:00,77.7,56.5,29.88,SSE,166,0.0,4.0,48,0.00,,,0.00,meteohub,2013-06-02 12:54:00,
2013-06-02 08:59:00,77.5,55.8,29.88,ESE,113,0.0,5.0,47,0.00,,,0.00,meteohub,2013-06-02 12:59:00,
2013-06-02 09:04:00,77.7,55.9,29.88,ESE,110,2.0,5.0,47,0.00,,,0.00,meteohub,2013-06-02 13:04:00,
2013-06-02 09:09:00,77.0,55.2,29.88,ESE,121,2.0,5.0,47,0.00,,,0.00,meteohub,2013-06-02 13:09:00,
2013-06-02 09:14:00,77.2,55.4,29.88,South,172,0.0,6.0,47,0.00,,,0.00,meteohub,2013-06-02 13:14:00,
2013-06-02 09:19:00,77.5,56.3,29.88,NW,309,4.0,6.0,48,0.00,,,0.00,meteohub,2013-06-02 13:19:00,
2013-06-02 09:24:00,77.5,55.8,29.88,East,89,0.0,6.0,47,0.00,,,0.00,meteohub,2013-06-02 13:24:00,
2013-06-02 09:29:00,79.7,55.9,29.88,NNE,12,0.0,5.0,44,0.00,,,0.00,meteohub,2013-06-02 13:29:00,
2013-06-02 09:34:00,80.2,56.3,29.88,East,97,0.0,5.0,44,0.00,,,0.00,meteohub,2013-06-02 13:34:00,
2013-06-02 09:39:00,80.1,55.6,29.85,ESE,114,0.0,5.0,43,0.00,,,0.00,meteohub,2013-06-02 13:39:00,
2013-06-02 10:00:00,81.9,55.9,29.85,East,97,6.0,9.0,41,0.00,,,0.00,meteohub,2013-06-02 14:00:00,
2013-06-02 10:05:00,81.9,55.9,29.85,SE,140,3.0,9.0,41,0.00,,,0.00,meteohub,2013-06-02 14:05:00,
2013-06-02 12:56:00,83.1,53.4,29.82,ENE,66,3.0,9.0,36,0.00,,,0.00,meteohub,2013-06-02 16:56:00,
2013-06-02 13:01:00,83.1,52.7,29.82,SE,144,3.0,9.0,35,0.00,,,0.00,meteohub,2013-06-02 17:01:00,
2013-06-02 13:07:00,83.1,53.4,29.79,SE,139,5.0,6.0,36,0.00,,,0.00,meteohub,2013-06-02 17:07:00,
2013-06-02 16:17:00,72.9,50.4,29.82,NW,310,5.0,13.0,45,0.00,,,0.00,meteohub,2013-06-02 20:17:00,
2013-06-02 16:22:00,72.1,50.2,29.82,WSW,249,8.0,13.0,46,0.00,,,0.00,meteohub,2013-06-02 20:22:00,
2013-06-02 16:27:00,70.0,52.5,29.85,WNW,284,5.0,16.0,54,0.00,,,0.00,meteohub,2013-06-02 20:27:00,
2013-06-02 16:32:00,69.6,54.1,29.85,NW,304,4.0,16.0,58,0.00,,,0.00,meteohub,2013-06-02 20:32:00,
2013-06-02 16:37:00,68.9,54.9,29.85,NW,306,3.0,16.0,61,0.00,,,0.00,meteohub,2013-06-02 20:37:00,
2013-06-02 16:42:00,68.5,55.0,29.82,NNW,328,0.0,6.0,62,0.00,,,0.00,meteohub,2013-06-02 20:42:00,
2013-06-02 16:47:00,68.5,55.9,29.82,NW,306,3.0,6.0,64,0.00,,,0.00,meteohub,2013-06-02 20:47:00,
2013-06-02 16:52:00,68.5,56.3,29.82,NW,318,0.0,6.0,65,0.00,,,0.00,meteohub,2013-06-02 20:52:00,
2013-06-02 16:57:00,68.5,56.7,29.82,NW,318,0.0,6.0,66,0.00,,,0.00,meteohub,2013-06-02 20:57:00,
2013-06-02 17:02:00,68.4,57.0,29.82,SSE,161,0.0,6.0,67,0.00,,,0.00,meteohub,2013-06-02 21:02:00,
2013-06-02 17:07:00,68.2,57.2,29.82,WNW,302,3.0,4.0,68,0.00,,,0.00,meteohub,2013-06-02 21:07:00,
2013-06-02 17:12:00,68.2,57.6,29.82,East,86,0.0,4.0,69,0.00,,,0.00,meteohub,2013-06-02 21:12:00,
2013-06-02 17:17:00,68.0,57.9,29.82,East,86,0.0,4.0,70,0.00,,,0.00,meteohub,2013-06-02 21:17:00,
2013-06-02 17:22:00,67.5,57.7,29.82,NW,305,0.0,6.0,71,0.00,,,0.00,meteohub,2013-06-02 21:22:00,
2013-06-02 17:27:00,67.5,57.7,29.85,NW,305,0.0,6.0,71,0.00,,,0.00,meteohub,2013-06-02 21:27:00,
2013-06-02 17:32:00,67.5,58.1,29.85,NW,316,0.0,6.0,72,0.00,,,0.00,meteohub,2013-06-02 21:32:00,
2013-06-02 17:37:00,67.5,58.1,29.85,NW,316,0.0,4.0,72,0.00,,,0.00,meteohub,2013-06-02 21:37:00,
2013-06-02 17:42:00,67.5,58.1,29.82,NNW,332,0.0,0.0,72,0.00,,,0.00,meteohub,2013-06-02 21:42:00,
2013-06-02 17:47:00,67.3,57.9,29.82,North,0,0.0,0.0,72,0.00,,,0.00,meteohub,2013-06-02 21:47:00,
2013-06-02 17:52:00,67.5,58.5,29.82,North,0,0.0,0.0,73,0.00,,,0.00,meteohub,2013-06-02 21:52:00,
2013-06-02 17:57:00,67.5,58.5,29.82,North,0,0.0,0.0,73,0.00,,,0.00,meteohub,2013-06-02 21:57:00,
2013-06-02 18:02:00,67.6,59.0,29.82,North,0,0.0,0.0,74,0.00,,,0.00,meteohub,2013-06-02 22:02:00,
2013-06-02 18:07:00,67.8,59.2,29.82,ESE,111,0.0,0.0,74,0.00,,,0.00,meteohub,2013-06-02 22:07:00,
2013-06-02 18:12:00,67.8,59.2,29.85,ESE,111,0.0,0.0,74,0.00,,,0.00,meteohub,2013-06-02 22:12:00,
2013-06-02 18:17:00,67.6,59.0,29.85,ESE,111,0.0,0.0,74,0.00,,,0.00,meteohub,2013-06-02 22:17:00,
2013-06-02 18:22:00,67.5,58.8,29.85,ESE,111,0.0,0.0,74,-99.99,,,0.00,meteohub,2013-06-02 22:22:00,
2013-06-02 18:27:00,67.5,59.2,29.85,ESE,111,0.0,0.0,75,-99.99,,,0.00,meteohub,2013-06-02 22:27:00,
2013-06-02 18:32:00,67.3,59.0,29.85,ESE,111,0.0,0.0,75,-99.99,,,0.00,meteohub,2013-06-02 22:32:00,
2013-06-02 18:37:00,67.5,59.5,29.85,ESE,111,0.0,0.0,76,0.00,,,0.00,meteohub,2013-06-02 22:37:00,
2013-06-02 18:42:00,67.5,59.5,29.85,ESE,111,0.0,0.0,76,0.00,,,0.00,meteohub,2013-06-02 22:42:00,
2013-06-02 18:47:00,67.5,59.5,29.85,ESE,111,0.0,0.0,76,0.00,,,0.00,meteohub,2013-06-02 22:47:00,
2013-06-02 18:52:00,67.5,59.5,29.82,ESE,111,0.0,0.0,76,0.00,,,0.00,meteohub,2013-06-02 22:52:00,
2013-06-02 18:57:00,67.3,59.5,29.82,ESE,111,0.0,0.0,76,0.00,,,0.00,meteohub,2013-06-02 22:57:00,
2013-06-02 19:02:00,67.5,60.1,29.82,ESE,111,0.0,0.0,77,0.00,,,0.00,meteohub,2013-06-02 23:02:00,
2013-06-02 19:07:00,67.5,60.1,29.82,ESE,111,0.0,0.0,77,0.00,,,0.00,meteohub,2013-06-02 23:07:00,
2013-06-02 19:12:00,67.3,59.9,29.82,ESE,109,3.0,5.0,77,0.00,,,0.00,meteohub,2013-06-02 23:12:00,
2013-06-02 19:17:00,67.3,59.9,29.82,ESE,108,3.0,5.0,77,0.00,,,0.00,meteohub,2013-06-02 23:17:00,
2013-06-02 19:22:00,67.3,59.9,29.82,ESE,108,0.0,5.0,77,0.00,,,0.00,meteohub,2013-06-02 23:22:00,
2013-06-02 19:27:00,67.3,59.9,29.82,ESE,108,0.0,4.0,77,0.00,,,0.00,meteohub,2013-06-02 23:27:00,
2013-06-02 19:32:00,67.3,59.9,29.82,ESE,108,0.0,4.0,77,0.00,,,0.00,meteohub,2013-06-02 23:32:00,
2013-06-02 19:37:00,67.5,60.1,29.82,ESE,108,0.0,0.0,77,0.00,,,0.00,meteohub,2013-06-02 23:37:00,
2013-06-02 19:42:00,67.5,60.4,29.82,ESE,108,0.0,0.0,78,0.00,,,0.00,meteohub,2013-06-02 23:42:00,
2013-06-02 19:47:00,67.5,60.4,29.82,ESE,108,0.0,0.0,78,0.00,,,0.00,meteohub,2013-06-02 23:47:00,
2013-06-02 19:52:00,67.5,60.4,29.82,ESE,108,0.0,0.0,78,0.00,,,0.00,meteohub,2013-06-02 23:52:00,
2013-06-02 19:58:00,67.5,60.4,29.82,ESE,108,0.0,0.0,78,0.00,,,0.00,meteohub,2013-06-02 23:58:00,
2013-06-02 20:02:00,67.5,60.4,29.82,ESE,108,0.0,0.0,78,0.00,,,0.00,meteohub,2013-06-03 00:02:00,
2013-06-02 20:08:00,67.3,60.3,29.82,ESE,108,0.0,0.0,78,0.00,,,0.00,meteohub,2013-06-03 00:08:00,
2013-06-02 20:13:00,67.1,60.1,29.85,ESE,108,0.0,0.0,78,0.00,,,0.00,meteohub,2013-06-03 00:13:00,
2013-06-02 20:18:00,67.1,60.1,29.85,ESE,108,0.0,0.0,78,0.00,,,0.00,meteohub,2013-06-03 00:18:00,
2013-06-02 20:23:00,66.9,59.9,29.85,ESE,108,0.0,0.0,78,0.00,,,0.00,meteohub,2013-06-03 00:23:00,
2013-06-02 20:28:00,66.7,59.7,29.85,ESE,108,0.0,0.0,78,0.00,,,0.00,meteohub,2013-06-03 00:28:00,
2013-06-02 20:33:00,66.6,59.5,29.85,ESE,108,0.0,0.0,78,0.00,,,0.00,meteohub,2013-06-03 00:33:00,
2013-06-02 20:38:00,66.6,59.9,29.85,ESE,108,0.0,0.0,79,0.00,,,0.00,meteohub,2013-06-03 00:38:00,
2013-06-02 20:43:00,66.4,59.7,29.85,ESE,108,0.0,0.0,79,0.00,,,0.00,meteohub,2013-06-03 00:43:00,
2013-06-02 20:48:00,66.4,59.7,29.85,ESE,108,0.0,0.0,79,0.00,,,0.00,meteohub,2013-06-03 00:48:00,
2013-06-02 20:53:00,66.2,59.5,29.85,ESE,108,0.0,0.0,79,0.00,,,0.00,meteohub,2013-06-03 00:53:00,
2013-06-02 20:58:00,66.2,59.5,29.85,ESE,108,0.0,0.0,79,0.00,,,0.00,meteohub,2013-06-03 00:58:00,
2013-06-02 21:03:00,66.2,59.5,29.85,ESE,108,0.0,0.0,79,0.00,,,0.00,meteohub,2013-06-03 01:03:00,
2013-06-02 21:08:00,66.0,59.4,29.85,ESE,108,0.0,0.0,79,0.00,,,0.00,meteohub,2013-06-03 01:08:00,
2013-06-02 21:12:00,65.8,59.5,29.85,ESE,108,0.0,0.0,80,0.00,,,0.00,meteohub,2013-06-03 01:12:00,
2013-06-02 21:17:00,65.8,59.5,29.85,ESE,108,0.0,0.0,80,0.00,,,0.00,meteohub,2013-06-03 01:17:00,
2013-06-02 21:22:00,65.8,59.5,29.85,ESE,108,0.0,0.0,80,0.00,,,0.00,meteohub,2013-06-03 01:22:00,
2013-06-02 21:28:00,65.7,59.4,29.85,ESE,108,0.0,0.0,80,0.00,,,0.00,meteohub,2013-06-03 01:28:00,
2013-06-02 21:33:00,65.5,59.2,29.85,ESE,108,0.0,0.0,80,0.00,,,0.00,meteohub,2013-06-03 01:33:00,
2013-06-02 21:37:00,65.5,59.2,29.85,ESE,108,0.0,0.0,80,0.00,,,0.00,meteohub,2013-06-03 01:37:00,
2013-06-02 21:43:00,65.3,59.0,29.85,ESE,108,0.0,0.0,80,0.00,,,0.00,meteohub,2013-06-03 01:43:00,
2013-06-02 21:48:00,65.3,59.0,29.85,ESE,108,0.0,0.0,80,0.00,,,0.00,meteohub,2013-06-03 01:48:00,
2013-06-02 21:53:00,65.1,58.8,29.85,ESE,108,0.0,0.0,80,0.00,,,0.00,meteohub,2013-06-03 01:53:00,
2013-06-02 21:58:00,65.1,58.8,29.85,ESE,108,0.0,0.0,80,0.00,,,0.00,meteohub,2013-06-03 01:58:00,
2013-06-02 22:03:00,64.9,58.6,29.85,ESE,108,0.0,0.0,80,0.00,,,0.00,meteohub,2013-06-03 02:03:00,
2013-06-02 22:08:00,64.9,58.6,29.88,WNW,300,3.0,0.0,80,0.00,,,0.00,meteohub,2013-06-03 02:08:00,
2013-06-02 22:13:00,64.9,58.6,29.88,NW,312,0.0,4.0,80,0.00,,,0.00,meteohub,2013-06-03 02:13:00,
2013-06-02 22:18:00,65.1,59.2,29.88,NW,305,4.0,5.0,81,0.00,,,0.00,meteohub,2013-06-03 02:18:00,
2013-06-02 22:23:00,65.3,59.4,29.88,NNE,12,0.0,8.0,81,0.00,,,0.00,meteohub,2013-06-03 02:23:00,
2013-06-02 22:28:00,65.3,59.4,29.88,NW,313,4.0,8.0,81,0.00,,,0.00,meteohub,2013-06-03 02:28:00,
2013-06-02 22:33:00,65.1,59.2,29.88,West,279,0.0,8.0,81,0.00,,,0.00,meteohub,2013-06-03 02:33:00,
2013-06-02 22:38:00,65.1,59.2,29.88,West,279,0.0,8.0,81,0.00,,,0.00,meteohub,2013-06-03 02:38:00,
2013-06-02 22:43:00,65.1,59.2,29.88,West,279,0.0,5.0,81,0.00,,,0.00,meteohub,2013-06-03 02:43:00,
2013-06-02 22:48:00,65.1,59.2,29.88,West,279,0.0,0.0,81,0.00,,,0.00,meteohub,2013-06-03 02:48:00,
2013-06-02 22:53:00,65.1,59.2,29.88,West,279,0.0,0.0,81,0.00,,,0.00,meteohub,2013-06-03 02:53:00,
2013-06-02 22:58:00,64.9,59.0,29.88,West,279,0.0,0.0,81,0.00,,,0.00,meteohub,2013-06-03 02:58:00,
2013-06-02 23:03:00,64.9,59.0,29.88,West,279,0.0,0.0,81,0.00,,,0.00,meteohub,2013-06-03 03:03:00,
2013-06-02 23:08:00,64.8,58.8,29.88,West,279,0.0,0.0,81,0.00,,,0.00,meteohub,2013-06-03 03:08:00,
2013-06-02 23:13:00,64.8,58.8,29.88,West,279,0.0,0.0,81,0.00,,,0.00,meteohub,2013-06-03 03:13:00,
2013-06-02 23:18:00,64.6,58.6,29.88,West,279,0.0,0.0,81,0.00,,,0.00,meteohub,2013-06-03 03:18:00,
2013-06-02 23:23:00,64.4,58.5,29.88,West,279,0.0,0.0,81,0.00,,,0.00,meteohub,2013-06-03 03:23:00,
2013-06-02 23:28:00,64.4,58.5,29.88,West,279,0.0,0.0,81,0.00,,,0.00,meteohub,2013-06-03 03:28:00,
2013-06-02 23:33:00,64.6,58.6,29.88,West,279,0.0,0.0,81,0.00,,,0.00,meteohub,2013-06-03 03:33:00,
2013-06-02 23:38:00,64.4,58.5,29.88,West,279,0.0,0.0,81,0.00,,,0.00,meteohub,2013-06-03 03:38:00,
2013-06-02 23:43:00,64.4,58.5,29.88,West,279,0.0,0.0,81,0.00,,,0.00,meteohub,2013-06-03 03:43:00,
2013-06-02 23:48:00,64.4,58.5,29.88,West,279,0.0,0.0,81,0.00,,,0.00,meteohub,2013-06-03 03:48:00,
2013-06-02 23:53:00,64.4,58.5,29.88,West,279,0.0,0.0,81,0.00,,,0.00,meteohub,2013-06-03 03:53:00,
2013-06-02 23:58:00,64.4,58.5,29.88,West,279,0.0,0.0,81,0.00,,,0.00,meteohub,2013-06-03 03:58:00,